{"data":{"norad_id":53790,"intl_designator":"2022-111T","name":"STARLINK-4734","alt_names":[],"object_type":"PAYLOAD","status":"ACTIVE","operator":null,"country":"US","launch_date":"2022-09-11","launch_site_code":"AFETR","launch_vehicle":null,"mission":null,"orbit_class":"UNKNOWN","rcs_meters":null,"size_class":null,"mass_kg":null,"dimensions":null,"purposes":["comms"],"wikipedia_slug":null,"has_3d_model":false,"image_url":null,"decayed_at":null,"tle_current":{"epoch":"2026-09-20T22:55:36.643008Z","epoch_age_seconds":44779,"freshness":"FRESH","line1":"1 53790U 22111T   26263.95528522  .00021526  00000+0  22109-3 0  9990","line2":"2 53790  53.1576  97.8870 0001144  84.0745 276.0401 15.64887671223448","mean_motion":15.64887671,"eccentricity":0.0001144,"inclination_deg":53.1576,"raan_deg":97.887,"arg_perigee_deg":84.0745,"mean_anomaly_deg":276.0401,"bstar":0.00022109,"rev_number":22344,"period_min":92.019384310173,"perigee_km":372.78944097451,"apogee_km":374.33422966804,"semimajor_km":6751.6988353213,"source":"CELESTRAK","updated_at":"2026-09-21T09:00:32.993965Z"}}}